When you browse on this site, cookies collect data to enhance your experience and personalize the content and advertising you see.
Visit our Privacy Policy to learn more. By continuing to use the site, you agree to this use of cookies and data.
  • In Germany
  • List of Countries
  • For 7 days
  • Water Temperature
  • Satellite Maps
  • Weather Map
  • Weather Widgets
  • user-avatar
    Login

    Hourly Weather Rangpur

    Today, 19 July, Friday

    Time Temperature Precipitation Wind Pressure Humidity
    00:00 +32°C° 0 mm 1 mps 748 mmHg 72%
    01:00 +32°C° 1 mm 1 mps 748 mmHg 75%
    02:00 +31°C° 1 mm 1 mps 747 mmHg 77%
    03:00 +31°C° 1 mm 2 mps 747 mmHg 80%
    04:00 +31°C° 1.3 mm 2 mps 747 mmHg 81%
    05:00 +30°C° 1.3 mm 2 mps 748 mmHg 82%
    06:00 +30°C° 0 mm 1 mps 749 mmHg 85%
    07:00 +31°C° 0.3 mm 2 mps 749 mmHg 80%
    08:00 +32°C° 0.3 mm 2 mps 749 mmHg 75%
    09:00 +34°C° 0.3 mm 2 mps 749 mmHg 70%
    10:00 +35°C° 0.6 mm 3 mps 749 mmHg 65%
    11:00 +37°C° 0.6 mm 3 mps 748 mmHg 61%
    12:00 +37°C° 0 mm 2 mps 749 mmHg 55%
    13:00 +38°C° 0 mm 2 mps 749 mmHg 55%
    14:00 +38°C° 0 mm 3 mps 748 mmHg 54%
    15:00 +38°C° 0 mm 3 mps 747 mmHg 53%
    16:00 +38°C° 0 mm 3 mps 747 mmHg 56%
    17:00 +37°C° 0 mm 3 mps 747 mmHg 59%
    18:00 +37°C° 0 mm 3 mps 747 mmHg 62%
    19:00 +36°C° 0 mm 2 mps 747 mmHg 64%
    20:00 +35°C° 0 mm 2 mps 748 mmHg 66%
    21:00 +34°C° 0 mm 2 mps 748 mmHg 67%
    22:00 +34°C° 0 mm 3 mps 748 mmHg 70%
    23:00 +33°C° 0 mm 3 mps 749 mmHg 73%

    Tomorrow, 20 July, Saturday

    Time Temperature Precipitation Wind Pressure Humidity
    00:00 +33°C° 0 mm 3 mps 749 mmHg 75%
    01:00 +31°C° 0.4 mm 3 mps 749 mmHg 77%
    02:00 +31°C° 0.4 mm 3 mps 748 mmHg 78%
    03:00 +31°C° 0.4 mm 3 mps 748 mmHg 80%
    04:00 +30°C° 0 mm 3 mps 748 mmHg 82%
    05:00 +30°C° 0 mm 3 mps 749 mmHg 83%
    06:00 +30°C° 0 mm 3 mps 749 mmHg 85%
    07:00 +31°C° 1.1 mm 3 mps 749 mmHg 81%
    08:00 +33°C° 1.1 mm 3 mps 750 mmHg 76%
    09:00 +34°C° 1.1 mm 4 mps 750 mmHg 71%
    10:00 +35°C° 1.3 mm 4 mps 750 mmHg 67%
    11:00 +36°C° 1.3 mm 4 mps 750 mmHg 63%
    12:00 +37°C° 1.3 mm 4 mps 749 mmHg 59%
    13:00 +37°C° 0.1 mm 4 mps 749 mmHg 58%
    14:00 +38°C° 0.1 mm 4 mps 748 mmHg 56%
    15:00 +38°C° 0.1 mm 4 mps 748 mmHg 55%
    16:00 +37°C° 0.1 mm 3 mps 748 mmHg 57%
    17:00 +37°C° 0.1 mm 3 mps 748 mmHg 60%
    18:00 +36°C° 0.1 mm 3 mps 748 mmHg 63%
    19:00 +36°C° 0.1 mm 2 mps 748 mmHg 64%
    20:00 +35°C° 0.1 mm 2 mps 748 mmHg 66%
    21:00 +34°C° 0.1 mm 2 mps 749 mmHg 68%
    22:00 +34°C° 0 mm 2 mps 749 mmHg 69%
    23:00 +32°C° 0 mm 2 mps 749 mmHg 70%

    Day after tomorrow, 21 July, Sunday

    Time Temperature Precipitation Wind Pressure Humidity
    00:00 +32°C° 0 mm 2 mps 749 mmHg 72%
    01:00 +32°C° 0.1 mm 2 mps 749 mmHg 73%
    02:00 +31°C° 0.1 mm 3 mps 748 mmHg 75%
    03:00 +31°C° 0.1 mm 3 mps 748 mmHg 77%
    04:00 +31°C° 0.5 mm 3 mps 748 mmHg 78%
    05:00 +30°C° 0.5 mm 3 mps 748 mmHg 80%
    06:00 +30°C° 0.5 mm 4 mps 749 mmHg 82%
    07:00 +32°C° 0.8 mm 4 mps 749 mmHg 79%
    08:00 +33°C° 0.8 mm 3 mps 749 mmHg 76%
    09:00 +34°C° 0.8 mm 3 mps 749 mmHg 73%
    10:00 +34°C° 1.6 mm 3 mps 749 mmHg 70%
    11:00 +35°C° 1.6 mm 3 mps 749 mmHg 67%
    12:00 +36°C° 1.6 mm 2 mps 749 mmHg 64%
    13:00 +35°C° 1.4 mm 2 mps 748 mmHg 66%
    14:00 +35°C° 1.4 mm 2 mps 748 mmHg 69%
    15:00 +35°C° 1.4 mm 3 mps 747 mmHg 71%
    16:00 +34°C° 0.5 mm 2 mps 747 mmHg 73%
    17:00 +34°C° 0.5 mm 2 mps 747 mmHg 75%
    18:00 +32°C° 0.5 mm 2 mps 747 mmHg 78%
    19:00 +32°C° 0.1 mm 2 mps 747 mmHg 78%
    20:00 +32°C° 0.1 mm 2 mps 747 mmHg 79%
    21:00 +32°C° 0.1 mm 2 mps 748 mmHg 79%
    22:00 +31°C° 0.7 mm 2 mps 748 mmHg 79%
    23:00 +31°C° 0.7 mm 2 mps 748 mmHg 79%

    22 July, Monday

    Time Temperature Precipitation Wind Pressure Humidity
    00:00 +31°C° 0.7 mm 2 mps 748 mmHg 79%
    01:00 +31°C° 1 mm 2 mps 747 mmHg 80%
    02:00 +31°C° 1 mm 3 mps 747 mmHg 80%
    03:00 +30°C° 1 mm 3 mps 747 mmHg 80%
    04:00 +30°C° 0.6 mm 3 mps 747 mmHg 82%
    05:00 +30°C° 0.6 mm 2 mps 747 mmHg 83%
    06:00 +29°C° 0.6 mm 2 mps 747 mmHg 85%
    07:00 +29°C° 0.6 mm 2 mps 748 mmHg 86%
    08:00 +29°C° 0.6 mm 1 mps 748 mmHg 86%
    09:00 +29°C° 0.6 mm 1 mps 749 mmHg 87%
    10:00 +29°C° 0.9 mm 1 mps 749 mmHg 87%
    11:00 +30°C° 0.9 mm 2 mps 749 mmHg 86%
    12:00 +30°C° 0.9 mm 2 mps 749 mmHg 85%
    13:00 +30°C° 0.4 mm 2 mps 748 mmHg 83%
    14:00 +31°C° 0.4 mm 3 mps 748 mmHg 80%
    15:00 +31°C° 0.4 mm 3 mps 747 mmHg 77%
    16:00 +31°C° 0.1 mm 3 mps 747 mmHg 77%
    17:00 +31°C° 0.1 mm 3 mps 747 mmHg 77%
    18:00 +31°C° 0.1 mm 3 mps 747 mmHg 78%
    19:00 +31°C° 0.7 mm 3 mps 747 mmHg 81%
    20:00 +30°C° 0.7 mm 3 mps 748 mmHg 84%
    21:00 +29°C° 0.7 mm 3 mps 748 mmHg 87%
    22:00 +29°C° 1.8 mm 3 mps 748 mmHg 88%
    23:00 +29°C° 1.8 mm 4 mps 748 mmHg 89%

    23 July, Tuesday

    Time Temperature Precipitation Wind Pressure Humidity
    00:00 +29°C° 1.8 mm 4 mps 748 mmHg 89%
    01:00 +29°C° 1.4 mm 4 mps 748 mmHg 89%
    02:00 +28°C° 1.4 mm 4 mps 747 mmHg 89%
    03:00 +28°C° 1.4 mm 3 mps 747 mmHg 89%
    04:00 +28°C° 0.4 mm 3 mps 747 mmHg 89%
    05:00 +28°C° 0.4 mm 3 mps 747 mmHg 90%
    06:00 +28°C° 0.4 mm 2 mps 747 mmHg 90%
    07:00 +29°C° 0.4 mm 3 mps 748 mmHg 87%
    08:00 +29°C° 0.4 mm 3 mps 748 mmHg 85%
    09:00 +30°C° 0.4 mm 3 mps 749 mmHg 83%
    10:00 +31°C° 0.4 mm 3 mps 749 mmHg 79%
    11:00 +31°C° 0.4 mm 3 mps 748 mmHg 76%
    12:00 +32°C° 0.4 mm 2 mps 748 mmHg 72%
    13:00 +34°C° 0.8 mm 2 mps 748 mmHg 69%
    14:00 +34°C° 0.8 mm 2 mps 747 mmHg 67%
    15:00 +35°C° 0.8 mm 2 mps 746 mmHg 64%
    16:00 +34°C° 1 mm 2 mps 746 mmHg 67%
    17:00 +34°C° 1 mm 2 mps 746 mmHg 71%
    18:00 +32°C° 1 mm 2 mps 746 mmHg 75%
    19:00 +32°C° 1 mm 2 mps 747 mmHg 78%
    20:00 +31°C° 1 mm 3 mps 747 mmHg 81%
    21:00 +30°C° 1 mm 4 mps 747 mmHg 84%
    22:00 +30°C° 0.4 mm 4 mps 747 mmHg 86%
    23:00 +29°C° 0.4 mm 4 mps 748 mmHg 87%

    24 July, Wednesday

    Time Temperature Precipitation Wind Pressure Humidity
    00:00 +29°C° 0.4 mm 4 mps 748 mmHg 89%
    01:00 +29°C° 0.3 mm 3 mps 747 mmHg 90%
    02:00 +28°C° 0.3 mm 3 mps 747 mmHg 90%
    03:00 +28°C° 0.3 mm 3 mps 747 mmHg 91%
    04:00 +28°C° 0.1 mm 3 mps 747 mmHg 92%
    05:00 +28°C° 0.1 mm 3 mps 747 mmHg 92%
    06:00 +28°C° 0.1 mm 3 mps 747 mmHg 92%
    07:00 +29°C° 0.1 mm 3 mps 748 mmHg 90%
    08:00 +29°C° 0.1 mm 4 mps 748 mmHg 87%
    09:00 +30°C° 0.1 mm 4 mps 749 mmHg 84%
    10:00 +32°C° 0.9 mm 4 mps 748 mmHg 80%
    11:00 +33°C° 0.9 mm 4 mps 748 mmHg 75%
    12:00 +34°C° 0.9 mm 4 mps 748 mmHg 71%
    13:00 +34°C° 0.6 mm 3 mps 747 mmHg 70%
    14:00 +34°C° 0.6 mm 3 mps 747 mmHg 70%
    15:00 +34°C° 0.6 mm 3 mps 746 mmHg 69%
    16:00 +34°C° 0.3 mm 3 mps 746 mmHg 72%
    17:00 +33°C° 0.3 mm 3 mps 746 mmHg 76%
    18:00 +31°C° 0.3 mm 3 mps 746 mmHg 79%
    19:00 +31°C° 0.2 mm 3 mps 747 mmHg 80%
    20:00 +30°C° 0.2 mm 2 mps 747 mmHg 82%
    21:00 +30°C° 0.2 mm 2 mps 748 mmHg 84%
    22:00 +30°C° 0.1 mm 2 mps 748 mmHg 85%
    23:00 +30°C° 0.1 mm 2 mps 748 mmHg 85%
    Show more